CT1AKV-10 Weather Reports


time (UTC)temp
C
wind
direction
speed
KPH
gust
KPH
rain 1hr
cm
rain 24hr
cm
rain mn
cm
humidity
%
barometer
mb
20181023090005 16 0 0.0 0.0 0.00 0.00 0.00 10 1029.9
20181023084505 16 0 0.0 0.0 0.00 0.00 0.00 10 1029.8
20181023081505 16 0 0.0 0.0 0.00 0.00 0.00 10 1029.5
20181023073005 16 0 0.0 0.0 0.00 0.00 0.00 10 1028.8
20181023071505 15 0 0.0 1.6 0.00 0.00 0.00 10 1028.6
20181023070005 15 0 0.0 0.0 0.00 0.00 0.00 10 1028.4
20181023064505 15 0 0.0 0.0 0.00 0.00 0.00 10 1028.2
20181023063005 15 0 0.0 0.0 0.00 0.00 0.00 10 1028.2
20181023060005 15 0 22.5 0.0 0.00 0.00 0.00 10 1028.0
20181023054505 15 0 0.0 0.0 0.00 0.00 0.00 10 1027.8
20181023053006 15 0 0.0 0.0 0.00 0.00 0.00 10 1027.7
20181023051505 15 0 0.0 0.0 0.00 0.00 0.00 23 1027.5
20181023050007 15 0 0.0 0.0 0.00 0.00 0.00 39 1027.5
20181023044506 15 0 0.0 0.0 0.00 0.00 0.00 54 1027.3
20181023043006 15 0 0.0 0.0 0.00 0.00 0.00 80 1027.2
20181023041505 15 0 0.0 0.0 0.00 0.00 0.00 99 1027.0
20181023040005 15 0 0.0 0.0 0.00 0.00 0.00 99 1027.0
20181023034505 15 0 0.0 0.0 0.00 0.00 0.00 99 1026.8
20181023033005 15 0 0.0 0.0 0.00 0.00 0.00 99 1026.7
20181023031505 15 0 0.0 0.0 0.00 0.00 0.00 99 1026.7
20181023030005 15 0 0.0 0.0 0.00 0.00 0.00 99 1026.8
20181023024505 15 0 0.0 0.0 0.00 0.00 0.00 99 1026.8
20181023023005 15 0 0.0 0.0 0.00 0.00 0.00 99 1026.9
20181023020005 15 0 6.4 0.0 0.00 0.00 0.00 95 1027.0
20181023013005 16 0 0.0 0.0 0.00 0.00 0.00 92 1027.0
20181023011505 16 0 0.0 0.0 0.00 0.00 0.00 91 1027.0
20181023010005 16 0 0.0 0.0 0.00 0.00 0.00 80 1027.0
20181023004506 16 0 0.0 0.0 0.00 0.00 0.00 80 1026.9
20181023001505 16 0 0.0 0.0 0.00 0.00 0.00 65 1027.0
20181023000004 16 0 0.0 0.0 0.00 0.00 0.00 58 1027.1
20181022234505 16 0 0.0 0.0 0.00 0.00 0.00 56 1027.1
20181022233004 16 0 0.0 0.0 0.00 0.00 0.00 43 1027.1
20181022231505 16 0 0.0 0.0 0.00 0.00 0.00 42 1027.1
20181022230011 16 0 0.0 0.0 0.00 0.00 0.00 36 1027.2
20181022224505 16 0 0.0 0.0 0.00 0.00 0.00 29 1027.3
20181022223005 16 0 0.0 0.0 0.00 0.00 0.00 27 1027.6
20181022221505 16 0 0.0 0.0 0.00 0.00 0.00 25 1027.6
20181022220005 16 0 0.0 0.0 0.00 0.00 0.00 22 1027.5
20181022214505 17 0 0.0 0.0 0.00 0.00 0.00 19 1027.4
20181022213005 17 0 0.0 0.0 0.00 0.00 0.00 16 1027.3
20181022211505 17 0 0.0 0.0 0.00 0.00 0.00 13 1027.1
20181022203005 18 0 0.0 0.0 0.00 0.00 0.00 10 1026.9
20181022201505 18 0 0.0 0.0 0.00 0.00 0.00 10 1027.0
20181022200005 18 0 0.0 0.0 0.00 0.00 0.00 10 1026.8
20181022194506 18 0 0.0 0.0 5.36 0.00 0.00 10 1026.8
20181022193013 18 0 0.0 0.0 0.00 0.00 0.00 10 1026.9
20181022191506 19 0 0.0 0.0 0.00 0.00 0.00 10 1026.8
20181022190005 20 0 16.1 0.0 0.00 5.36 0.00 10 1026.6
20181022184505 20 0 368.5 0.0 0.00 0.00 0.00 10 1026.5
20181022183006 21 0 368.5 0.0 0.00 0.00 0.00 10 1026.3
20181022181505 21 0 368.5 0.0 0.00 0.00 0.00 10 1026.2
20181022180005 22 0 368.5 0.0 0.00 0.00 0.00 10 1026.1
20181022173006 23 0 553.6 0.0 0.00 0.00 0.00 10 1026.2
20181022171504 23 0 553.6 0.0 0.00 0.00 0.00 10 1026.1
20181022170005 24 0 553.6 0.0 5.36 0.00 0.00 10 1026.1
20181022164506 24 0 553.6 0.0 5.36 0.00 0.00 10 1026.2
20181022163005 25 0 553.6 0.0 0.00 0.00 0.00 10 1026.3
20181022161504 26 0 405.6 0.0 5.36 0.00 0.00 10 1026.2
20181022160005 26 0 405.6 0.0 0.00 0.00 0.00 10 1026.2
20181022154505 26 0 239.8 0.0 0.00 0.00 0.00 11 1026.5
20181022151505 27 0 32.2 0.0 0.00 0.00 0.00 21 1026.4
20181022150005 27 0 0.0 0.0 0.00 0.00 0.00 10 1026.4
20181022141505 30 0 0.0 0.0 0.00 0.00 0.00 10 1026.5
20181022140006 30 0 66.0 0.0 5.36 5.36 0.00 53 1026.6
20181022134504 29 0 3.2 0.0 0.00 0.00 0.00 37 1026.7
20181022133005 30 0 0.0 0.0 0.00 0.00 0.00 10 1026.9
20181022131505 30 0 0.0 0.0 0.00 0.00 0.00 10 1027.1
20181022130005 30 0 0.0 0.0 0.00 0.00 0.00 10 1027.1